Regional Weather Roundup
Issued by NWS

Home | Current Version | Previous Version | Graphics & Text | Print | Product List | Glossary On
Versions: 1 2 3 4 5 6 7 8 9 10 11 12 13 14 15 16 17 18 19 20 21 22 23 24 25 26 27 28 29 30 31 32 33 34 35 36 37 38 39 40 41 42 43 44 45 46 47 48 49 50
000
ASUS43 KLOT 040110
RWRIL

ILLINOIS REGIONAL WEATHER ROUNDUP
NATIONAL WEATHER SERVICE CHICAGO/ROMEOVILLE IL
700 PM CST TUE MAR 03 2015

NOTE: "FAIR" INDICATES FEW OR NO CLOUDS BELOW 12,000 FEET WITH NO
SIGNIFICANT WEATHER AND/OR OBSTRUCTIONS TO VISIBILITY.

* THESE STATIONS ARE NOT UNDER NWS QUALITY CONTROL. THEY ALSO MAY NOT
  REPORT WEATHER SUCH AS PRECIPITATION OR FOG.

ILZ001-002-007-009-015-016-024-040200-
NORTHWEST ILLINOIS

CITY           SKY/WX    TMP DP  RH WIND       PRES   REMARKS
MOLINE         CLOUDY    33  26  75 NW8       29.84R WCI  26
STERLING*      CLOUDY    32  27  80 NW15G24   29.82R WCI  22
SAVANNA*       CLOUDY    32  25  73 W8        29.82R WCI  25
$$

ILZ003-004-008-010-011-017-018-040200-
NORTH CENTRAL ILLINOIS

CITY           SKY/WX    TMP DP  RH WIND       PRES   REMARKS
ROCKFORD       CLOUDY    31  23  72 W12       29.80R WCI  22
FREEPORT*      CLOUDY    30  23  76 W9        29.81R WCI  22
ROCHELLE*      CLOUDY    32  28  85 W16       29.80R WCI  21
DE KALB*       CLOUDY    31  27  84 W14       29.78R WCI  20
PERU*          CLOUDY    34  29  82 W15G23    29.82R WCI  25
$$

ILZ005-006-012>014-019>023-040200-
NORTHEAST ILLINOIS

CITY           SKY/WX    TMP DP  RH WIND       PRES   REMARKS
CHICAGO-OHARE  CLOUDY    33  28  81 W12       29.75R WCI  24
CHICAGO-MIDWAY CLOUDY    36  29  75 W10       29.77R WCI  28
AURORA         CLOUDY    34  28  79 W13       29.78R WCI  25
LANSING*       CLOUDY    35  30  82 W13       29.78R WCI  26
JOLIET*        CLOUDY    33  30  88 W7        29.79R WCI  27
WAUKEGAN       CLOUDY    32  25  75 W7        29.74R WCI  26
DUPAGE AIRPORT CLOUDY    33  27  78 W10       29.77R WCI  25
KANKAKEE*      CLOUDY    34  32  94 W9        29.80R WCI  26
WHEELING       CLOUDY    33  27  78 W12       29.77R WCI  24
MORRIS*        CLOUDY    34  32  93 W12       29.78R WCI  25
ROMEOVILLE*    CLOUDY    33  30  86 W10       29.78R WCI  25
NORTHERLY ISL    N/A     35  28  76 W7          N/A  WCI  29
$$

LMZ740>746-040200-
SOUTHERN LAKE MICHIGAN

STATION/POSITION SKY/WX   TEMP    WIND        PRES    VSBY  WAVE
                          AIR SEA DIR/SP/G                  HT/PER
                          (F)     (DEG/KT/KT) (MB)    (MI)  (FT/S)
WAUKEGAN HARBOR            33                   N/A
HARRISON CRIB              34     280/ 12/ 15   N/A
BURNHAM HARBOR             35     280/  7/ 16   N/A
CALUMET HARBOR             35     260/  6/ 12 1006.9S
MICHIGAN CITY              33     240/ 14/ 17   N/A
$$

ILZ025>027-034>036-040-047-049-050-058-095>099-040200-
WEST-CENTRAL ILLINOIS

CITY           SKY/WX    TMP DP  RH WIND       PRES   REMARKS
QUINCY         CLOUDY    36  30  79 NW12      29.89R WCI  28
GALESBURG*     CLOUDY    32  28  85 W10       29.86R WCI  24
MACOMB*        CLOUDY    33  31  91 W13       29.90R WCI  24
JACKSONVILLE*  CLOUDY    36  34  92 W9        29.89R FOG     WCI  29
PITTSFIELD*    CLOUDY    37  35  91 NW3       29.90R
$$

ILZ028>032-037-038-041>044-048-051>054-059>061-040200-
CENTRAL ILLINOIS

CITY           SKY/WX    TMP DP  RH WIND       PRES   REMARKS
PONTIAC        CLOUDY    35  33  90 W10       29.82R WCI  27
BLOOMINGTON    CLOUDY    35  33  92 W12       29.85R WCI  27
DECATUR        CLOUDY    38  35  89 NW12      29.86R WCI  30
PEORIA         CLOUDY    37  30  75 W8        29.87R WCI  31
LACON*         CLOUDY    34  29  83 W6        29.83R WCI  29
LINCOLN*       CLOUDY    37  34  89 NW6       29.87R WCI  32
SPRINGFIELD    CLOUDY    37  34  89 W9        29.88R WCI  30
TAYLORVILLE    CLOUDY    36  36 100 W10       29.87R FOG     WCI  28
$$

ILZ033-039-045-046-055>057-062-063-040200-
EAST-CENTRAL ILLINOIS

CITY           SKY/WX    TMP DP  RH WIND       PRES   REMARKS
CHAMPAIGN      CLOUDY    35  33  92 W9        29.84R WCI  28
DANVILLE*      CLOUDY    36  34  93 W10G17    29.80R WCI  28
RANTOUL*       CLOUDY    37  35  93 W9        29.83R WCI  30
MATTOON        CLOUDY    38  37  97 W6        29.85R WCI  33
PARIS*         CLOUDY    37  36  99 W7        29.84S FOG     WCI  31
$$

ILZ079-100>102-040200-
SOUTHWEST ILLINOIS

CITY           SKY/WX    TMP DP  RH WIND       PRES   REMARKS
ALTON          CLOUDY    37  36  93 W7        29.88R WCI  32
BELLEVILLE     LGT RAIN  38  38 100 NW2       29.87R FOG
CAHOKIA*       CLOUDY    45  40  82 W5        29.89R
SPARTA*        LGT RAIN  42  42  99 CALM      29.88R VSB 1
$$

ILZ064>066-069>071-074>076-080>082-084>086-088>090-092>094-040200-
SOUTH-CENTRAL ILLINOIS

CITY           SKY/WX    TMP DP  RH WIND       PRES   REMARKS
CARBONDALE     LGT RAIN  43  41  93 SW3       29.88R FOG
CAIRO*         HVY RAIN N/A N/A N/A CALM      29.87F VSB 1/2
EFFINGHAM*     FOG       38  36  92 SW5       29.88R VSB 1/4 WCI  34
MARION         RAIN      45  43  93 SW3       29.89R
MT. VERNON     CLOUDY    39  37  93 CALM      29.88R VSB 1/2
CENTRALIA*     LGT RAIN  38  37  94 CALM      29.87R VSB 1/4
SALEM*         LGT RAIN  41  39  95 CALM      29.87R VSB 1/4
METROPOLIS*    DRIZZLE   49  49 100 CALM      29.87S
$$

ILZ067-068-072-073-078-083-087-091-040200-
SOUTHEAST ILLINOIS

CITY           SKY/WX    TMP DP  RH WIND       PRES   REMARKS
LAWRENCEVILLE  LGT RAIN  38  38 100 SW6       29.89R WCI  33
FLORA*         LGT RAIN  37  37 100 SW3       29.88R VSB 1/4
FAIRFIELD*     LGT RAIN  42  42  99 CALM      29.86S VSB 3/4
HARRISBURG*    RAIN      43  43 100 CALM      29.89S
ROBINSON*      LGT RAIN  37  37 100 SW3       29.88R VSB 1/2
CARMI*         LGT RAIN  45  45  99 SW6       29.87S
$$

ABBREVIATIONS USED IN REMARKS
   TC - TEMPERATURE IN CELSIUS
  WCI - WIND CHILL INDEX
   HX - HEAT INDEX
  VSB - VISIBILITY
$$




USA.gov is the U.S. government's official web portal to all federal, state and local government web resources and services.